Flag for China Weather past 2 weeks in Tianjin, Tianjin Municipality, China

Now
82 °F

Clear.


Feels Like: 81 °F
Forecast: 74 / 94 °F
Wind: 6 mph from Southwest

Location: Tianjin / Zhangguizhu

Current Time: May 25, 2015 at 9:50:40 PM

Latest Report: May 25, 2015 at 9:00 PM


Visibility: 10 mi

Pressure: 29.71 "Hg

Humidity: 30%

Dew point: 48 °F

Location of TianjinLocation

Historic Weather in Tianjin — Graph

°F

Tianjin temperature yesterday

Maximum temperature yesterday: 90 °F (at 1:30 PM)
Minimum temperature yesterday: 68 °F (at 2:30 AM)
Average temperature yesterday: 79 °F

Past Weeks' High & Low Weather Summary

 TemperatureHumidityPressure
High93 °F (May 25, 1:30 PM)100% (May 10, 8:00 PM)30.04 "Hg (May 10, 8:00 PM)
Low50 °F (May 10, 8:00 PM)10% (May 19, 12:00 PM)29.30 "Hg (May 13, 2:00 PM)
Average73 °F40%29.72 "Hg
* Reported May 10 8:00 PM — May 25 8:30 PM, Tianjin, Weather by CustomWeather, © 2015

Note: Actual official high and low records may vary slightly from our data, if they occured in-between our weather recording intervals... More about our weather records

Advertising

Tianjin weather history for previous 24 hours

 ConditionsComfort  
Time TempWeatherWind HumidityBarometerVisibility
8:30 PM
Mon, May 25
84 °FClear.8 mph29%29.71 "Hg10 mi
8:00 PM84 °FClear.8 mph25%29.71 "Hg10 mi
7:30 PM88 °FClear.10 mph18%29.68 "Hg10 mi
7:00 PM88 °FSunny.10 mph19%29.68 "Hg10 mi
6:30 PM90 °FSunny.10 mph20%29.68 "Hg10 mi
6:00 PM90 °FPassing clouds.10 mph20%29.65 "HgN/A
5:30 PM91 °FPassing clouds.8 mph15%29.68 "HgN/A
5:00 PM91 °FSunny.10 mph16%29.68 "Hg10 mi
4:30 PM91 °FSunny.13 mph16%29.68 "Hg10 mi
4:00 PM93 °FSunny.10 mph15%29.68 "Hg10 mi
3:30 PM93 °FPassing clouds.13 mph15%29.68 "HgN/A
3:00 PM93 °FPassing clouds.10 mph15%29.68 "HgN/A
2:30 PM93 °FPassing clouds.13 mph15%29.68 "HgN/A
2:00 PM93 °FPassing clouds.10 mph17%29.68 "HgN/A
1:30 PM93 °FPassing clouds.8 mph17%29.71 "HgN/A
1:00 PM91 °FPassing clouds.10 mph17%29.71 "HgN/A
12:30 PM90 °FSunny.10 mph21%29.71 "Hg10 mi
11:30 AM88 °FPassing clouds.13 mph24%29.74 "HgN/A
11:00 AM88 °FPassing clouds.10 mph25%29.74 "HgN/A
10:30 AM86 °FClear.10 mph27%29.74 "Hg5 mi
10:00 AM84 °FClear.13 mph31%29.77 "Hg5 mi
9:30 AM82 °FClear.13 mph32%29.74 "Hg5 mi
9:00 AM82 °FClear.8 mph32%29.74 "Hg5 mi
8:30 AM81 °FClear.8 mph34%29.74 "Hg5 mi
8:00 AM79 °FClear.8 mph37%29.74 "Hg4 mi
7:30 AM77 °FHaze.6 mph42%29.74 "Hg3 mi
7:00 AM73 °FHaze.6 mph50%29.74 "Hg2 mi
6:30 AM72 °FHaze.3 mph53%29.74 "Hg2 mi
6:00 AM70 °FHaze.3 mph57%29.74 "Hg2 mi
5:30 AM68 °FHaze.6 mph60%29.74 "Hg2 mi
5:00 AM66 °FHaze.3 mph64%29.71 "Hg2 mi
4:30 AM70 °FHaze.3 mph57%29.71 "Hg2 mi
4:00 AM70 °FHaze.3 mph57%29.71 "Hg2 mi
3:30 AM72 °FHaze.3 mph50%29.71 "Hg3 mi
3:00 AM73 °FHaze.3 mph47%29.71 "Hg3 mi
2:30 AM75 °FClear.3 mph44%29.71 "Hg4 mi
2:00 AM75 °FClear.6 mph44%29.71 "Hg4 mi
1:30 AM75 °FClear.8 mph44%29.71 "Hg4 mi
1:00 AM73 °FClear.6 mph47%29.71 "Hg4 mi
12:30 AM75 °FClear.3 mph41%29.71 "Hg4 mi
12:00 AM77 °FClear.6 mph39%29.71 "Hg5 mi
11:30 PM
Sun, May 24
79 °FClear.6 mph37%29.71 "Hg10 mi
11:00 PM79 °FClear.6 mph34%29.71 "Hg10 mi
10:30 PM79 °FClear.6 mph34%29.71 "Hg10 mi
10:00 PM81 °FClear.8 mph32%29.71 "Hg10 mi
9:30 PM81 °FClear.8 mph32%29.71 "Hg5 mi
9:00 PM82 °FClear.8 mph28%29.71 "Hg5 mi
Weather by CustomWeather, © 2015

See weather overviewHow to use our weather pages